Regional Weather Roundup
Issued by NWS

Home | Current Version | Previous Version | Graphics & Text | Print | Product List | Glossary On
Versions: 1 2 3 4 5 6 7 8 9 10 11 12 13 14 15 16 17 18 19 20 21 22 23 24 25 26 27 28 29 30 31 32 33 34 35 36 37 38 39 40 41 42 43 44 45 46 47 48 49 50
000
ASUS43 KBIS 210220
RWRND

NORTH DAKOTA REGIONAL WEATHER ROUNDUP
NATIONAL WEATHER SERVICE BISMARCK ND
900 PM CDT SUN APR 20 2014

NOTE: "FAIR" INDICATES FEW OR NO CLOUDS BELOW 12,000 FEET WITH NO
SIGNIFICANT WEATHER AND/OR OBSTRUCTIONS TO VISIBILITY.


NDZ001>003-009>011-017-210300-
NORTHWEST NORTH DAKOTA

CITY           SKY/WX    TMP DP  RH WIND       PRES   REMARKS
WILLISTON      CLEAR     56  26  31 NW13      29.98R
MINOT          CLEAR     56  29  35 W14       29.91R
MINOT AFB      CLEAR     54  32  43 W12       29.90R
$$

NDZ018>021-031>035-040>046-210300-
SOUTHWEST NORTH DAKOTA

CITY           SKY/WX    TMP DP  RH WIND       PRES   REMARKS
BISMARCK       MOCLDY    64  23  21 NW15      29.96R
DICKINSON      CLEAR     51  22  31 NW10      30.00R
GARRISON         N/A     54  30  40 NW9       29.95R
HETTINGER ARPT CLEAR     50  22  33 NW10      30.03R
$$

NDZ004>008-012>016-024-026-027-054-210300-
NORTHEAST NORTH DAKOTA

CITY           SKY/WX    TMP DP  RH WIND       PRES   REMARKS
GRAND FORKS    MOCLDY    63  40  42 S13       29.80F
GRND FRKS AFB  MOCLDY    63  39  42 W20       29.85R
DEVILS LAKE    CLOUDY    54  36  50 W8        29.89R
$$

NDZ022-023-025-028>030-036>039-047>053-210300-
SOUTHEAST NORTH DAKOTA

CITY           SKY/WX    TMP DP  RH WIND       PRES   REMARKS
FARGO          MOCLDY    66  37  34 SE10      29.87S
JAMESTOWN      MOCLDY    64  34  32 NW15      29.89R
$$




USA.gov is the U.S. government's official web portal to all federal, state and local government web resources and services.